Voltar ao catálogo

HULIANWANG DIGUI-98

AtivoComunicaçõesLEO
NORAD 66414·PAYLOAD·🇨🇳 China

Lançado Nov 10, 2025 de Wenchang Space Launch Site

Loading…

Próximas Passagens (próximas 24 horas)

TLE

AtualizadoSource: Space-Track

Época: Sep 14, 2026, 11:14 UTC

1 66414U 25258C   26257.46874477 -.00000089  00000-0  75736-4 0  9992
2 66414  50.0067 335.6616 0000262  72.4157 287.6744 13.29326637 41608

Acompanhe HULIANWANG DIGUI-98 em tempo real com AllMySat

Download on the App Store